Weather History for KMUO - February, 2013

Change the Weather History Date:

Thursday, February 7, 2013

  Actual Average Record
Temperature  
Mean Temperature 38 °F 33 °F  
Max Temperature 44 °F 42 °F 60 °F (1963)
Min Temperature 32 °F 23 °F -17 °F (1933)
Degree Days  
Heating Degree Days 27 32  
Month to date heating degree days 211 226  
Cooling Degree Days 0 0  
Month to date cooling degree days 0 0  
Moisture  
Dew Point 25 °F    
Average Humidity 64    
Maximum Humidity 80    
Minimum Humidity 48    
Precipitation  
Precipitation 0.00 in 0.03 in 0.48 in (1941)
Month to date precipitation T 0.20  
Sea Level Pressure  
Sea Level Pressure 29.98 in    
Wind  
Wind Speed 16 mph (ESE)    
Max Wind Speed 23 mph    
Max Gust Speed 32 mph    
Visibility 10 miles    
Events      
T = Trace of Precipitation, MM = Missing Value Source: NWS Daily Summary

Daily Weather History Graph

Daily Weather History Graph

Search for Another Location

Airport or City:

Trip Planner

Search our weather history database for the weather conditions in past years. The results will help you decide how hot, cold, wet, or windy it might be!

Date:

Astronomy

Feb. 07, 2013 Rise Set
Actual Time 7:51 AM MST 6:04 PM MST
Civil Twilight 7:21 AM MST 6:34 PM MST
Nautical Twilight 6:48 AM MST 7:07 PM MST
Astronomical Twilight 6:14 AM MST 7:41 PM MST
Moon 5:37 AM MST (2/7) 3:31 PM MST (2/7)
Length of Visible Light 11h 12m
Length of Day
10h 13m
Waning Crescent, 8% of the Moon is Illuminated
Feb 7
Waning Crescent
Feb 10
New
Feb 17
First Quarter
Feb 25
Full
Mar 4
Last Quarter

Hourly Weather History & Observations

Time (MST) Temp. Windchill Dew Point Humidity Pressure Visibility Wind Dir Wind Speed Gust Speed Precip Events Conditions
12:58 AM 33.4 °F 22.7 °F 25.7 °F 73% 30.14 in 10.0 mi East 17.3 mph - N/A   Clear
1:58 AM 35.2 °F 24.4 °F 25.0 °F 66% 30.11 in 10.0 mi ESE 19.6 mph 26.5 mph N/A   Clear
2:58 AM 34.7 °F 22.8 °F 24.8 °F 67% 30.09 in 10.0 mi ESE 23.0 mph - N/A   Partly Cloudy
3:58 AM 34.9 °F 23.6 °F 24.8 °F 67% 30.05 in 10.0 mi ESE 20.7 mph 28.8 mph N/A   Mostly Cloudy
4:58 AM 34.0 °F 22.4 °F 25.2 °F 70% 30.05 in 10.0 mi ESE 20.7 mph 29.9 mph N/A   Clear
5:58 AM 34.0 °F 22.4 °F 25.0 °F 70% 30.04 in 10.0 mi ESE 20.7 mph - N/A   Clear
6:58 AM 33.8 °F 23.2 °F 24.6 °F 69% 30.05 in 10.0 mi ESE 17.3 mph - N/A   Partly Cloudy
7:58 AM 34.5 °F 23.8 °F 24.4 °F 67% 30.04 in 10.0 mi ESE 18.4 mph - N/A   Partly Cloudy
8:58 AM 35.2 °F 24.4 °F 24.6 °F 65% 30.04 in 10.0 mi ESE 19.6 mph - N/A   Scattered Clouds
9:58 AM 37.4 °F 26.4 °F 24.4 °F 60% 30.02 in 10.0 mi ESE 23.0 mph 29.9 mph N/A   Mostly Cloudy
10:58 AM 39.0 °F 28.5 °F 24.4 °F 56% 30.01 in 10.0 mi ESE 23.0 mph - N/A   Mostly Cloudy
11:58 AM 40.5 °F 30.7 °F 24.6 °F 53% 29.99 in 10.0 mi ESE 21.9 mph 32.2 mph N/A   Mostly Cloudy
12:58 PM 42.1 °F 33.3 °F 24.6 °F 50% 29.96 in 10.0 mi ESE 19.6 mph - N/A   Mostly Cloudy
1:58 PM 43.0 °F 33.8 °F 24.3 °F 48% 29.94 in 10.0 mi ESE 23.0 mph - N/A   Mostly Cloudy
2:58 PM 43.5 °F 35.5 °F 25.5 °F 49% 29.93 in 10.0 mi ESE 18.4 mph - N/A   Mostly Cloudy
3:58 PM 43.3 °F 35.8 °F 25.3 °F 49% 29.93 in 10.0 mi ESE 16.1 mph - N/A   Mostly Cloudy
4:58 PM 41.9 °F 34.6 °F 25.7 °F 53% 29.92 in 10.0 mi ESE 13.8 mph - N/A   Mostly Cloudy
5:58 PM 40.5 °F 33.2 °F 25.5 °F 55% 29.92 in 10.0 mi ESE 12.7 mph - N/A   Partly Cloudy
6:58 PM 37.9 °F 30.9 °F 25.3 °F 60% 29.93 in 10.0 mi SE 10.4 mph - N/A   Clear
7:58 PM 34.2 °F 29.0 °F 25.0 °F 69% 29.94 in 10.0 mi ESE 5.8 mph - N/A   Partly Cloudy
8:33 PM 32.0 °F 28.7 °F 24.8 °F 75% 29.89 in 10.0 mi Variable 3.5 mph - N/A   Mostly Cloudy
8:58 PM 32.9 °F 27.5 °F 25.9 °F 75% 29.95 in 10.0 mi NW 5.8 mph - N/A   Overcast
9:08 PM 33.8 °F 28.6 °F 26.6 °F 75% 29.90 in 10.0 mi NW 5.8 mph - N/A   Scattered Clouds
9:58 PM 35.2 °F 31.2 °F 25.2 °F 67% 29.94 in 10.0 mi NNW 4.6 mph - N/A   Partly Cloudy
10:03 PM 35.6 °F 32.8 °F 24.8 °F 65% 29.90 in 10.0 mi North 3.5 mph - N/A   Mostly Cloudy
10:58 PM 35.1 °F - 25.5 °F 68% 29.95 in 10.0 mi Calm Calm - N/A   Mostly Cloudy
11:03 PM 35.6 °F - 24.8 °F 65% 29.91 in 10.0 mi Calm Calm - N/A   Mostly Cloudy
11:38 PM 32.0 °F - 26.6 °F 80% 29.90 in 10.0 mi West 2.3 mph - N/A   Overcast
11:58 PM 33.8 °F 30.8 °F 27.0 °F 76% 29.94 in 10.0 mi WSW 3.5 mph - N/A   Overcast